ZS1TG Weather Reports


time (UTC)temp
F
wind
direction
speed
knots
gust
knots
rain 1hr
in
rain 24hr
in
rain mn
in
humidity
%
barometer
mb
20260505193058 57 277 0.0 0.9 0.00 0.02 0.02 86 1013.9
20260505191601 57 250 0.0 0.9 0.00 0.02 0.02 85 1014.1
20260505190057 57 284 0.0 0.0 0.00 0.02 0.02 85 1014.3
20260505184557 57 311 0.0 0.0 0.00 0.02 0.02 84 1014.3
20260505183101 58 312 0.0 0.0 0.00 0.02 0.02 82 1014.3
20260505181554 59 307 0.0 0.0 0.00 0.02 0.02 80 1014.1
20260505180053 59 264 0.0 0.9 0.00 0.02 0.02 80 1013.9
20260505174557 59 265 0.0 0.9 0.00 0.02 0.02 79 1014.1
20260505173051 59 166 0.0 0.9 0.00 0.02 0.02 79 1013.9
20260505171549 59 209 0.0 4.3 0.00 0.02 0.02 78 1013.6
20260505170048 59 201 0.0 3.5 0.00 0.02 0.02 78 1013.5
20260505164559 59 216 0.0 4.3 0.00 0.04 0.02 77 1013.1
20260505163054 60 246 0.0 3.5 0.00 0.04 0.02 77 1012.8
20260505161547 60 304 0.0 5.2 0.00 0.04 0.02 76 1012.7
20260505153104 61 218 1.7 9.6 0.00 0.06 0.02 73 1012.5
20260505151554 62 218 0.9 4.3 0.00 0.06 0.02 71 1012.1
20260505123036 63 135 0.0 7.0 0.00 0.06 0.02 68 1011.8
20260505121538 63 220 0.9 9.6 0.00 0.06 0.02 65 1011.8
20260505120036 64 220 1.7 7.0 0.00 0.06 0.02 61 1011.8
20260505114539 63 247 0.0 5.2 0.00 0.06 0.02 64 1012.0
20260505113033 62 260 0.0 5.2 0.00 0.06 0.02 65 1012.2
20260505111535 62 214 0.0 0.9 0.00 0.06 0.02 66 1012.4
20260505101530 65 301 0.0 0.9 0.00 0.06 0.02 60 1012.9
20260505100033 63 303 0.0 0.9 0.00 0.06 0.02 62 1013.1
20260505094521 63 232 0.0 3.5 0.00 0.06 0.02 67 1013.2
20260505093019 62 304 0.0 3.5 0.00 0.06 0.02 70 1013.4
20260505091517 63 314 0.0 2.6 0.00 0.06 0.02 72 1013.4
20260505090013 62 261 0.0 0.0 0.00 0.06 0.02 81 1013.5
20260505084509 60 308 0.0 4.3 0.00 0.06 0.02 87 1013.5
20260505083004 58 244 0.0 4.3 0.00 0.06 0.02 93 1013.6
20260505081502 57 297 0.0 1.7 0.00 0.06 0.02 95 1013.6
20260505080100 57 328 0.0 0.0 0.00 0.06 0.02 97 1013.6
20260505074611 55 65 0.0 0.0 0.00 0.06 0.02 96 1013.8
20260505073056 54 270 0.0 0.0 0.00 0.06 0.02 97 1013.7
20260505071551 52 288 0.0 0.0 0.00 0.06 0.02 97 1013.6
20260505070052 51 275 0.0 0.0 0.01 0.06 0.02 98 1013.6
20260505064547 49 275 0.0 0.0 0.01 0.06 0.02 97 1013.5
20260505063050 49 275 0.0 0.0 0.01 0.06 0.02 97 1013.4
20260505061609 48 275 0.0 0.0 0.01 0.06 0.02 98 1013.2
20260505060046 46 275 0.0 0.0 0.00 0.06 0.01 97 1013.0
20260505054554 45 275 0.0 0.0 0.00 0.06 0.01 96 1012.8
20260505053037 46 277 0.0 0.0 0.00 0.06 0.01 97 1012.6
20260505051536 46 278 0.0 0.0 0.00 0.06 0.01 97 1012.4
20260505041527 46 76 0.0 0.0 0.00 0.06 0.01 96 1012.2
20260505040024 47 48 0.0 0.0 0.00 0.06 0.01 96 1012.0
20260505034523 47 21 0.0 0.0 0.00 0.06 0.01 96 1011.9
20260505033033 48 242 0.0 0.0 0.00 0.06 0.01 96 1011.8
20260505031521 49 242 0.0 0.0 0.00 0.06 0.01 97 1011.6
20260505030021 48 246 0.0 0.0 0.00 0.06 0.01 97 1011.6
20260505024545 47 156 0.0 0.0 0.00 0.06 0.01 96 1011.7
20260505023018 47 201 0.0 0.0 0.00 0.06 0.01 96 1011.7
20260505021533 48 202 0.0 0.0 0.00 0.06 0.01 96 1011.5
20260505020015 48 202 0.0 0.0 0.00 0.06 0.01 96 1011.4
20260505014516 48 202 0.0 0.0 0.00 0.06 0.01 96 1011.4
20260505013010 49 201 0.0 0.0 0.00 0.06 0.01 96 1011.3
20260505011508 49 178 0.0 0.0 0.00 0.06 0.01 95 1011.4
20260505010005 50 282 0.0 0.0 0.00 0.06 0.01 95 1011.7
20260505004511 52 282 0.0 0.0 0.00 0.06 0.01 96 1011.7
20260505003002 51 268 0.0 0.0 0.00 0.06 0.01 96 1011.8
20260505001601 51 211 0.0 0.0 0.01 0.06 0.01 96 1011.9
20260505000059 51 170 0.0 0.0 0.01 0.06 0.01 96 1011.9
20260504234558 51 168 0.0 0.0 0.01 0.06 0.01 96 1012.0
20260504233102 51 168 0.0 0.0 0.01 0.06 0.01 96 1012.0
20260504231556 51 168 0.0 0.0 0.00 0.05 0.00 96 1012.1
20260504230056 51 168 0.0 0.0 0.00 0.05 0.00 96 1012.0
20260504224553 51 168 0.0 0.0 0.00 0.05 0.00 96 1012.0
20260504223055 50 168 0.0 0.0 0.00 0.05 0.00 96 1012.0
20260504221556 50 221 0.0 0.0 0.00 0.05 0.00 95 1011.9
20260504220103 50 222 0.0 0.0 0.00 0.05 0.00 95 1011.9
20260504214545 51 222 0.0 0.0 0.00 0.05 0.05 95 1012.0
20260504213045 52 226 0.0 0.0 0.00 0.05 0.05 95 1012.1
20260504211541 52 229 0.0 0.0 0.00 0.05 0.05 95 1012.2
20260504210041 52 126 0.0 0.0 0.00 0.05 0.05 95 1012.3
20260504204557 52 126 0.0 0.0 0.00 0.05 0.05 95 1012.2
20260504203038 53 126 0.0 0.0 0.00 0.05 0.05 95 1012.0
20260504201536 54 127 0.0 0.0 0.00 0.05 0.05 95 1011.9
20260504200042 55 126 0.0 0.0 0.00 0.05 0.05 95 1011.8
20260504194540 55 127 0.0 0.0 0.00 0.05 0.05 95 1011.7